Location: Catstown
(52.4386°N, 7.2633°W)
Time: 12:28:49
(UTC+00:00)

SPOT 5 - Pass Details

Date: 18 September 2020
Orbit: 623 x 815 km, 98.3° (Epoch: 24 October)

Event Time Altitude Azimuth Distance (km) Brightness Sun altitude
Exits shadow 22:19:22 61° 303° (WNW) 900 3.4 -30.2°
Drops below altitude 10° 22:23:59 10° 341° (NNW) 2,398 6.4 -30.7°
Sets 22:26:24 0° 344° (NNW) 3,345 7.3 -30.9°
